Prairie Du Chien, WI

3:19 AM CST on December 16, 2017 (GMT -0600)
Prairie Du Chien Municipal

Weather History for KPDC - November, 2015

Change the Weather History Date:

Monday, November 9, 2015

  Actual Average Record
Temperature  
Mean Temperature 43 °F -  
Max Temperature 56 °F 48 °F 75 °F (1999)
Min Temperature 30 °F 31 °F 14 °F (2003)
Degree Days  
Heating Degree Days 22    
Moisture  
Dew Point 28 °F    
Average Humidity 64    
Maximum Humidity 89    
Minimum Humidity 34    
Precipitation  
Precipitation 0.00 in - - ()
Sea Level Pressure  
Sea Level Pressure 30.19 in    
Wind  
Wind Speed 2 mph (SSE)    
Max Wind Speed 8 mph    
Max Gust Speed -    
Visibility 10 miles    
Events      
Averages and records for this station are not official NWS values.
T = Trace of Precipitation, MM = Missing Value Source: NWS Daily Summary

Daily Weather History Graph

Daily Weather History Graph

Search for Another Location

Airport or City:

Trip Planner

Search our weather history database for the weather conditions in past years. The results will help you decide how hot, cold, wet, or windy it might be!

Date:

Astronomy

Nov. 09, 2015 Rise Set
Actual Time 6:48 AM CST 4:47 PM CST
Civil Twilight 6:18 AM CST 5:17 PM CST
Nautical Twilight 5:44 AM CST 5:51 PM CST
Astronomical Twilight 5:11 AM CST 6:24 PM CST
Moon 4:38 AM CST (11/9) 4:01 PM CST (11/9)
Length of Visible Light 10h 58m
Length of Day
9h 58m
Waning Crescent, 4% of the Moon is Illuminated
Nov 9
Waning Crescent
Nov 11
New
Nov 19
First Quarter
Nov 25
Full
Dec 3
Last Quarter

Hourly Weather History & Observations

Time (CST) Temp. Windchill Dew Point Humidity Pressure Visibility Wind Dir Wind Speed Gust Speed Precip Events Conditions
12:10 AM 36.7 °F - 27.1 °F 68% 30.24 in 10.0 mi Calm Calm - N/A   Clear
12:30 AM 34.5 °F - 27.0 °F 74% 30.24 in 10.0 mi Calm Calm - N/A   Clear
12:50 AM 34.3 °F - 27.1 °F 75% 30.25 in 10.0 mi Calm Calm - N/A   Clear
1:10 AM 33.6 °F - 26.8 °F 76% 30.25 in 10.0 mi Calm Calm - N/A   Clear
1:30 AM 33.6 °F - 26.6 °F 75% 30.25 in 10.0 mi Calm Calm - N/A   Clear
1:50 AM 34.2 °F - 27.3 °F 76% 30.25 in 10.0 mi Calm Calm - N/A   Clear
2:10 AM 33.4 °F - 27.0 °F 77% 30.25 in 10.0 mi Calm Calm - N/A   Clear
2:30 AM 32.4 °F - 26.6 °F 79% 30.25 in 10.0 mi Calm Calm - N/A   Clear
2:50 AM 32.4 °F - 25.5 °F 76% 30.24 in 10.0 mi Calm Calm - N/A   Clear
3:10 AM 31.1 °F - 25.7 °F 80% 30.24 in 10.0 mi Calm Calm - N/A   Clear
3:30 AM 31.3 °F - 25.9 °F 80% 30.24 in 10.0 mi Calm Calm - N/A   Clear
3:50 AM 32.2 °F - 26.6 °F 80% 30.24 in 10.0 mi Calm Calm - N/A   Clear
4:10 AM 32.2 °F - 26.2 °F 79% 30.24 in 10.0 mi Calm Calm - N/A   Clear
4:30 AM 32.2 °F 28.9 °F 26.1 °F 78% 30.23 in 10.0 mi ESE 3.5 mph - N/A   Clear
4:50 AM 31.6 °F 27.0 °F 26.6 °F 82% 30.23 in 10.0 mi SE 4.6 mph - N/A   Clear
5:10 AM 31.1 °F 27.7 °F 27.0 °F 85% 30.23 in 10.0 mi SSE 3.5 mph - N/A   Clear
5:30 AM 30.4 °F - 27.3 °F 88% 30.23 in 10.0 mi Calm Calm - N/A   Clear
5:50 AM 30.4 °F 26.9 °F 27.5 °F 89% 30.23 in 10.0 mi SE 3.5 mph - N/A   Clear
6:10 AM 30.4 °F 26.9 °F 27.5 °F 89% 30.23 in 10.0 mi SE 3.5 mph - N/A   Clear
6:30 AM 30.9 °F 27.5 °F 27.7 °F 88% 30.22 in 10.0 mi SE 3.5 mph - N/A   Clear
6:50 AM 30.9 °F 27.5 °F 27.3 °F 86% 30.23 in 10.0 mi ESE 3.5 mph - N/A   Clear
7:10 AM 30.9 °F - 27.1 °F 86% 30.23 in 10.0 mi Calm Calm - N/A   Clear
7:30 AM 31.3 °F 27.9 °F 27.3 °F 85% 30.23 in 10.0 mi SSE 3.5 mph - N/A   Clear
7:50 AM 32.5 °F - 27.9 °F 83% 30.24 in 10.0 mi Calm Calm - N/A   Clear
8:10 AM 34.5 °F - 29.1 °F 81% 30.24 in 10.0 mi Calm Calm - N/A   Clear
8:30 AM 37.8 °F - 28.9 °F 71% 30.24 in 10.0 mi Calm Calm - N/A   Clear
8:50 AM 40.3 °F - 29.3 °F 65% 30.23 in 10.0 mi Calm Calm - N/A   Clear
9:10 AM 42.3 °F - 29.1 °F 60% 30.23 in 10.0 mi Calm Calm - N/A   Clear
9:30 AM 43.5 °F - 28.6 °F 56% 30.23 in 10.0 mi Calm Calm - N/A   Clear
9:50 AM 45.7 °F 44.4 °F 29.1 °F 52% 30.23 in 10.0 mi South 3.5 mph - N/A   Clear
10:10 AM 47.8 °F - 28.6 °F 47% 30.22 in 10.0 mi South 6.9 mph - N/A   Clear
10:30 AM 49.6 °F - 29.3 °F 46% 30.21 in 10.0 mi South 8.1 mph - N/A   Clear
10:50 AM 51.3 °F - 29.3 °F 43% 30.21 in 10.0 mi South 8.1 mph - N/A   Clear
11:10 AM 52.0 °F - 28.2 °F 40% 30.21 in 10.0 mi South 6.9 mph - N/A   Clear
11:30 AM 52.9 °F - 27.7 °F 38% 30.19 in 10.0 mi South 8.1 mph - N/A   Clear
11:50 AM 54.0 °F - 27.7 °F 36% 30.19 in 10.0 mi South 4.6 mph - N/A   Clear
12:10 PM 54.5 °F - 27.7 °F 36% 30.18 in 10.0 mi South 6.9 mph - N/A   Clear
12:30 PM 55.4 °F - 28.2 °F 35% 30.18 in 10.0 mi South 4.6 mph - N/A   Clear
12:50 PM 55.9 °F - 28.6 °F 35% 30.17 in 10.0 mi South 5.8 mph - N/A   Clear
1:10 PM 56.3 °F - 28.4 °F 34% 30.16 in 10.0 mi SSW 6.9 mph - N/A   Clear
1:30 PM 56.5 °F - 28.6 °F 34% 30.15 in 10.0 mi SSW 5.8 mph - N/A   Clear
1:50 PM 56.5 °F - 28.4 °F 34% 30.15 in 10.0 mi SSW 5.8 mph - N/A   Clear
2:10 PM 56.7 °F - 28.8 °F 34% 30.15 in 10.0 mi South 4.6 mph - N/A   Clear
2:30 PM 56.3 °F - 28.0 °F 34% 30.14 in 10.0 mi Calm Calm - N/A   Clear
2:50 PM 56.3 °F - 28.6 °F 35% 30.14 in 10.0 mi South 4.6 mph - N/A   Clear
3:10 PM 55.9 °F - 28.9 °F 36% 30.14 in 10.0 mi South 3.5 mph - N/A   Clear
3:30 PM 55.8 °F - 28.8 °F 36% 30.14 in 10.0 mi South 4.6 mph - N/A   Clear
3:50 PM 55.0 °F - 28.2 °F 36% 30.13 in 10.0 mi SE 5.8 mph - N/A   Clear
4:10 PM 54.5 °F - 27.5 °F 35% 30.13 in 10.0 mi SE 3.5 mph - N/A   Clear
4:30 PM 53.6 °F - 27.3 °F 36% 30.13 in 10.0 mi SE 3.5 mph - N/A   Clear
4:50 PM 51.8 °F - 28.2 °F 40% 30.13 in 10.0 mi Calm Calm - N/A   Clear
5:10 PM 48.6 °F - 29.8 °F 48% 30.13 in 10.0 mi East 3.5 mph - N/A   Clear
5:30 PM 45.5 °F 44.2 °F 30.9 °F 57% 30.13 in 10.0 mi East 3.5 mph - N/A   Clear
5:50 PM 44.6 °F 42.2 °F 30.2 °F 57% 30.13 in 10.0 mi East 4.6 mph - N/A   Clear
6:10 PM 44.6 °F 43.1 °F 30.2 °F 57% 30.14 in 10.0 mi East 3.5 mph - N/A   Clear
6:30 PM 42.1 °F 40.2 °F 29.8 °F 62% 30.14 in 10.0 mi East 3.5 mph - N/A   Clear
6:50 PM 41.9 °F - 30.0 °F 63% 30.14 in 10.0 mi Calm Calm - N/A   Clear
7:10 PM 40.6 °F - 30.0 °F 66% 30.14 in 10.0 mi Calm Calm - N/A   Clear
7:30 PM 37.2 °F - 29.8 °F 75% 30.14 in 10.0 mi Calm Calm - N/A   Clear
7:50 PM 38.3 °F 35.9 °F 29.5 °F 71% 30.14 in 10.0 mi ESE 3.5 mph - N/A   Clear
8:10 PM 39.7 °F - 28.4 °F 64% 30.14 in 10.0 mi Calm Calm - N/A   Clear
8:30 PM 36.0 °F - 28.6 °F 75% 30.14 in 10.0 mi Calm Calm - N/A   Clear
8:50 PM 36.1 °F - 28.4 °F 73% 30.14 in 10.0 mi Calm Calm - N/A   Clear
9:10 PM 35.8 °F - 29.1 °F 77% 30.14 in 10.0 mi Calm Calm - N/A   Clear
9:30 PM 35.1 °F - 28.0 °F 76% 30.14 in 10.0 mi Calm Calm - N/A   Clear
9:50 PM 35.6 °F - 28.9 °F 77% 30.14 in 10.0 mi Calm Calm - N/A   Clear
10:10 PM 33.6 °F - 28.2 °F 81% 30.13 in 10.0 mi Calm Calm - N/A   Clear
10:30 PM 33.6 °F 29.4 °F 28.9 °F 83% 30.12 in 7.0 mi ESE 4.6 mph - N/A   Clear
10:50 PM 33.8 °F 30.8 °F 29.8 °F 85% 30.12 in 10.0 mi SSE 3.5 mph - N/A   Clear
11:10 PM 31.8 °F 28.5 °F 27.7 °F 85% 30.13 in 10.0 mi ESE 3.5 mph - N/A   Clear
11:30 PM 30.0 °F - 26.1 °F 85% 30.13 in 10.0 mi Calm Calm - N/A   Clear
11:50 PM 32.0 °F - 27.9 °F 85% 30.13 in 10.0 mi Calm Calm - N/A   Clear